(294250) = 2007 UK65 = 2000 YE24

Discovered at Mount Lemmon on 2007-10-31 by Mt. Lemmon Survey.

Orbit

Orbit type: Main Belt

Note: WebGL enabled browser required.

epoch2024-03-31.0
epoch JD2460400.5
perihelion date2020-07-18.82126
perihelion JD2459049.32127
argument of perihelion (°)263.93153
ascending node (°)284.03755
inclination (°)1.85932
eccentricity0.1280091
perihelion distance (AU)2.1103773
Tisserand w.r.t. Jupiter3.5
ΔV w.r.t. Earth (km/sec)9.1
semimajor axis (AU)2.4201827
mean anomaly (°)353.70781
mean daily motion (°/day)0.26177720
aphelion distance (AU)2.730
period (years)3.77
P-vector [x]-0.98983512
P-vector [y]-0.11424826
P-vector [z]-0.08469813
Q-vector [x]0.13869270
Q-vector [y]-0.90724519
Q-vector [z]-0.39707745
absolute magnitude17.65
phase slope0.15
uncertainty0
referenceE2024-GI3
observations used201
oppositions13
arc length (days)8506
first opposition used2000
last opposition used2024
residual rms (arc-secs)0.79
perturbers coarse indicatorM-v
perturbers precise indicator003Ek
first observation date used2000-12-28.0
last observation date used2024-04-12.0
computer nameMPCLINUX
JD of orbit computation2456909.332072
perihelion JD uncertainty (days)2.4747E-04
argument of perihelion uncertainty (°)2.9418E-04
ascending node uncertainty (°)2.8923E-04
inclination uncertainty (°)7.6052E-06
eccentricity uncertainty 2.6945E-07
perihelion distance uncertainty (AU)5.9909E-07
Minimum Orbit Intersection Distances (in AU)
for orbit epoch: 2460400.5, reference: E2024-GI3
Mercury1.69297
Venus1.39389
Earth1.11248
Mars0.47189
Jupiter2.23104
Saturn6.51539
Uranus16.2983
Neptune27.1168

Observations

197 total observations over interval: 2000 12 28.37388 – 2024 03 14.257395
These data are available for download (format description).

Date (UT) J2000 RA J2000 Dec Magn Location Ref
2000 12 28.37388 07 32 22.33 +21 43 06.4 20.8 V 691 – Steward Observatory, Kitt Peak-Spacewatch MPS 24148
2000 12 28.40780 07 32 20.22 +21 43 08.1 20.9 V 691 – Steward Observatory, Kitt Peak-Spacewatch MPS 24149
2000 12 28.43375 07 32 18.61 +21 43 10.6 21.1 V 691 – Steward Observatory, Kitt Peak-Spacewatch MPS 24149
2000 12 30.37834 07 30 21.09 +21 45 35.7 21.0 V 691 – Steward Observatory, Kitt Peak-Spacewatch MPS 24149
2000 12 30.40094 07 30 19.64 +21 45 37.4 20.9 V 691 – Steward Observatory, Kitt Peak-Spacewatch MPS 24149
2000 12 30.42383 07 30 18.14 +21 45 40.2 20.2 V 691 – Steward Observatory, Kitt Peak-Spacewatch MPS 24149
2005 01 19.49216 10 08 16.09 +09 40 28.2 20.5 V 691 – Steward Observatory, Kitt Peak-Spacewatch MPS 253036
2005 01 19.51772 10 08 15.23 +09 40 30.0 20.3 V 691 – Steward Observatory, Kitt Peak-Spacewatch MPS 253036
2005 01 19.54260 10 08 14.43 +09 40 31.8 20.8 V 691 – Steward Observatory, Kitt Peak-Spacewatch MPS 253036
2005 03 09.25096 09 27 11.38 +12 26 59.8 20.1 R G96 – Mt. Lemmon Survey MPS 253036
2005 03 09.25863 09 27 11.06 +12 27 01.5 19.7 R G96 – Mt. Lemmon Survey MPS 253036
2005 03 09.26631 09 27 10.76 +12 27 02.6 20.0 R G96 – Mt. Lemmon Survey MPS 253036
2005 03 09.27397 09 27 10.48 +12 27 03.9 19.6 R G96 – Mt. Lemmon Survey MPS 253036
2005 04 05.21675 09 21 47.36 +12 57 17.7 20.4 R G96 – Mt. Lemmon Survey MPS 253036
2005 04 05.22340 09 21 47.45 +12 57 17.2 20.2 R G96 – Mt. Lemmon Survey MPS 253036
2005 04 05.23002 09 21 47.55 +12 57 17.1 19.5 R G96 – Mt. Lemmon Survey MPS 253036
2005 04 05.23667 09 21 47.64 +12 57 17.0 20.6 R G96 – Mt. Lemmon Survey MPS 253036
2006 08 21.15242 20 13 37.15 -18 32 16.8 20.0 R 807 – Cerro Tololo Observatory, La Serena MPS 254085
2006 08 21.24473 20 13 33.11 -18 32 27.0   807 – Cerro Tololo Observatory, La Serena MPS 254085
2007 10 31.26215 02 55 59.59 +19 28 23.7 20.5 V G96 – Mt. Lemmon Survey MPS 223952
2007 10 31.27053 02 55 59.08 +19 28 21.6 20.6 V G96 – Mt. Lemmon Survey MPS 223952
2007 10 31.27890 02 55 58.54 +19 28 19.5 21.2 V G96 – Mt. Lemmon Survey MPS 223952
2007 10 31.28722 02 55 58.04 +19 28 17.4 20.8 V G96 – Mt. Lemmon Survey MPS 223952
2007 11 01.38885 02 54 52.45 +19 23 32.4   291 – LPL/Spacewatch II MPS 223952
2007 11 01.39277 02 54 52.19 +19 23 31.7   291 – LPL/Spacewatch II MPS 223952
2007 11 01.39663 02 54 52.00 +19 23 30.5   291 – LPL/Spacewatch II MPS 223952
2007 11 02.30378 02 53 57.91 +19 19 31.1 20.2 V G96 – Mt. Lemmon Survey MPS 253036
2007 11 02.31207 02 53 57.48 +19 19 29.6 19.4 V G96 – Mt. Lemmon Survey MPS 253036
2007 11 02.32024 02 53 56.94 +19 19 26.6 20.4 V G96 – Mt. Lemmon Survey MPS 253036
2007 11 02.32844 02 53 56.43 +19 19 24.0 20.6 V G96 – Mt. Lemmon Survey MPS 253036
2007 11 18.15406 02 38 06.32 +18 02 33.2 20.9 V G96 – Mt. Lemmon Survey MPS 253036
2007 11 18.15951 02 38 06.07 +18 02 31.8 21.6 V G96 – Mt. Lemmon Survey MPS 253036
2007 11 18.16492 02 38 05.64 +18 02 30.2 20.7 V G96 – Mt. Lemmon Survey MPS 253036
2007 11 18.17035 02 38 05.35 +18 02 28.8 21.3 V G96 – Mt. Lemmon Survey MPS 253036
2009 02 27.41667 12 46 45.08 -08 21 50.8 20.7 V 691 – Steward Observatory, Kitt Peak-Spacewatch MPS 278738
2009 02 27.43428 12 46 44.66 -08 21 50.3 20.6 V 691 – Steward Observatory, Kitt Peak-Spacewatch MPS 278738
2009 02 27.45189 12 46 44.27 -08 21 48.0 20.1 V 691 – Steward Observatory, Kitt Peak-Spacewatch MPS 278738
2009 03 03.39432 12 45 02.59 -08 16 47.7 20.3 V 691 – Steward Observatory, Kitt Peak-Spacewatch MPS 278738
2009 03 03.41196 12 45 02.02 -08 16 45.7 20.6 V 691 – Steward Observatory, Kitt Peak-Spacewatch MPS 278738
2009 03 03.42960 12 45 01.42 -08 16 45.3 20.2 V 691 – Steward Observatory, Kitt Peak-Spacewatch MPS 278738
2009 03 24.31866 12 29 55.32 -07 01 24.8 20.1 V G96 – Mt. Lemmon Survey MPS 281338
2009 03 24.32626 12 29 54.88 -07 01 22.3 20.1 V G96 – Mt. Lemmon Survey MPS 281338
2009 03 24.33396 12 29 54.45 -07 01 20.6 19.9 V G96 – Mt. Lemmon Survey MPS 281338
2009 03 24.34156 12 29 54.06 -07 01 18.0 19.7 V G96 – Mt. Lemmon Survey MPS 281338
2009 03 31.28006 12 23 43.98 -06 23 39.7 20.1 V 703 – Catalina Sky Survey MPS 282612
2009 03 31.28899 12 23 43.47 -06 23 35.4 19.5 V 703 – Catalina Sky Survey MPS 282612
2009 03 31.29785 12 23 42.86 -06 23 32.4 20.4 V 703 – Catalina Sky Survey MPS 282612
2009 03 31.30676 12 23 42.36 -06 23 30.9 20.1 V 703 – Catalina Sky Survey MPS 282612
2013 04 16.49631 15 30 21.707 -21 59 03.35 20.2 w F51 – Pan-STARRS 1, Haleakala MPS 464918
2013 04 16.51245 15 30 21.076 -21 59 01.65 20.2 w F51 – Pan-STARRS 1, Haleakala MPS 464918
2013 04 16.52860 15 30 20.447 -21 58 59.85 20.4 w F51 – Pan-STARRS 1, Haleakala MPS 464918
2013 04 16.54473 15 30 19.823 -21 58 58.07 20.4 w F51 – Pan-STARRS 1, Haleakala MPS 464918
2013 05 11.40917 15 09 12.503 -20 35 03.21 19.6 w F51 – Pan-STARRS 1, Haleakala MPS 468564
2013 05 11.42304 15 09 11.662 -20 34 59.48 19.7 w F51 – Pan-STARRS 1, Haleakala MPS 468564
2013 06 02.26082 14 51 14.47 -18 56 09.8 20.3 V G96 – Mt. Lemmon Survey MPS 469809
2013 06 02.26667 14 51 14.22 -18 56 08.3 20.5 V G96 – Mt. Lemmon Survey MPS 469809
2013 06 02.27259 14 51 14.00 -18 56 07.1 20.3 V G96 – Mt. Lemmon Survey MPS 469809
2013 06 02.27851 14 51 13.75 -18 56 05.2 20.5 V G96 – Mt. Lemmon Survey MPS 469809
2014 08 31.41434 23 48 26.441 +01 38 14.06 21.4 w F51 – Pan-STARRS 1, Haleakala MPS 531245
2014 08 31.42602 23 48 25.868 +01 38 10.74 21.9 w F51 – Pan-STARRS 1, Haleakala MPS 531245
2014 08 31.43775 23 48 25.283 +01 38 07.76 21.5 w F51 – Pan-STARRS 1, Haleakala MPS 531245
2014 08 31.44955 23 48 24.697 +01 38 04.59 21.8 w F51 – Pan-STARRS 1, Haleakala MPS 531245
2015 12 14.38666 06 56 49.873 +23 19 52.90 20.7 w F51 – Pan-STARRS 1, Haleakala MPS 662377
2015 12 14.39872 06 56 49.203 +23 19 53.41 20.6 w F51 – Pan-STARRS 1, Haleakala MPS 662377
2015 12 14.41078 06 56 48.541 +23 19 53.82 20.6 w F51 – Pan-STARRS 1, Haleakala MPS 662377
2016 01 04.46077 06 34 25.538 +23 26 34.18 20.2 w F51 – Pan-STARRS 1, Haleakala MPS 667852
2016 01 04.47174 06 34 24.765 +23 26 34.03 20.3 w F51 – Pan-STARRS 1, Haleakala MPS 667852
2016 01 04.49368 06 34 23.211 +23 26 34.09 20.6 w F51 – Pan-STARRS 1, Haleakala MPS 667852
2016 01 07.48636 06 31 01.492 +23 26 26.89 20.6 w F51 – Pan-STARRS 1, Haleakala MPS 667852
2016 01 07.49891 06 31 00.625 +23 26 26.82 20.7 w F51 – Pan-STARRS 1, Haleakala MPS 667852
2016 01 07.51147 06 30 59.739 +23 26 26.66 20.8 w F51 – Pan-STARRS 1, Haleakala MPS 667852
2016 01 07.52413 06 30 58.895 +23 26 26.35 20.6 w F51 – Pan-STARRS 1, Haleakala MPS 667852
2018 10 05.34659 00 58 55.15 +09 28 23.1 21.3 G G96 – Mt. Lemmon Survey MPS 923407
2018 10 05.35167 00 58 54.81 +09 28 21.6 21.3 G G96 – Mt. Lemmon Survey MPS 923407
2018 10 05.35676 00 58 54.51 +09 28 19.6 20.9 G G96 – Mt. Lemmon Survey MPS 923407
2018 10 05.36184 00 58 54.25 +09 28 18.0 21.0 G G96 – Mt. Lemmon Survey MPS 923407
2018 10 18.22371 00 47 08.97 +08 13 34.3 21.2 G G96 – Mt. Lemmon Survey MPS 930729
2018 10 18.22930 00 47 08.66 +08 13 31.8 20.9 G G96 – Mt. Lemmon Survey MPS 930729
2018 10 18.23488 00 47 08.47 +08 13 30.5 21.1 G G96 – Mt. Lemmon Survey MPS 930729
2018 10 18.24049 00 47 08.12 +08 13 28.2 21.4 G G96 – Mt. Lemmon Survey MPS 930729
2019 11 27.56765 09 19 54.765 +15 11 12.15 21.8 w F51 – Pan-STARRS 1, Haleakala MPS 1086595
2019 11 27.57881 09 19 55.242 +15 11 09.37 21.6 w F51 – Pan-STARRS 1, Haleakala MPS 1086595
2019 11 27.59000 09 19 55.677 +15 11 06.85 22.0 w F51 – Pan-STARRS 1, Haleakala MPS 1086595
2019 11 27.60128 09 19 56.144 +15 11 03.74 21.9 w F51 – Pan-STARRS 1, Haleakala MPS 1086595
2020 01 20.41357 09 16 15.292 +14 24 31.66 20.3 w F51 – Pan-STARRS 1, Haleakala MPS 1140649
2020 01 20.42509 09 16 14.671 +14 24 33.65 20.2 w F51 – Pan-STARRS 1, Haleakala MPS 1140649
2020 01 20.43665 09 16 14.042 +14 24 35.51 20.3 w F51 – Pan-STARRS 1, Haleakala MPS 1140649
2020 01 20.44825 09 16 13.416 +14 24 37.42 20.4 w F51 – Pan-STARRS 1, Haleakala MPS 1140649
2020 01 22.41136 09 14 29.906 +14 29 59.37 20.3 w F51 – Pan-STARRS 1, Haleakala MPS 1140649
2020 01 22.42224 09 14 29.295 +14 30 01.25 20.3 w F51 – Pan-STARRS 1, Haleakala MPS 1140649
